SCP
0 0 0 0 0 0 0 0 0 0 0 0 0 0 0 0 0 0 0 0 0 0 0 0 0 0 0 0 0 0 0 0 0 0 0 0 0 0 0 0 0 0 0 0 0 0 0 0 0 0 0 0 0 0
0 0 0 0 0 0 0 0 0 0 0 0 0 0 0 0 0 0 0 0 0 0 0 0 0 0 0 0 0 0 0 0 0 0 0 0 0 0 0 0 0 0 0 0 0 0 0 0 0 0 0 0 0 0
0 0 0 0 0 0 0 0 0 0 0 0 0 0 0 0 0 0 0 0 0 0 0 0 0 0 0 0 0 0 0 0 0 0 0 0 0 0 0 0 0 0 0 0 0 0 0 0 0 0 0 0 0 0
0 0 0 0 0 0 0 0 0 0 0 0 0 0 0 0 0 0 0 0 0 0 0 0 0 0 0 0 0 0 0 0 0 0 0 0 0 0 0 0 0 0 0 0 0 0 0 0 0 0 0 0 0 0
0 0 0 0 0 0 0 0 0 0 0 0 0 0 0 0 0 0 0 0 0 0 0 0 0 0 0 0 0 0 0 0 0 0 0 0 0 0 0 0 0 0 0 0 0 0 0 0 0 0 0 0 0 0
0 0 0 0 0 0 0 0 0 0 0 0 0 0 0 0 0 0 0 0 0 0 0 0 0 0 0 0 0 0 0 0 0 0 0 0 0 0 0 0 0 0 0 0 0 0 0 0 0 0 0 0 0 0
0 0 0 0 0 0 0 0 0 0 0 0 0 0 0 0 0 0 0 0 0 0 0 0 0 0 0 0 0 0 0 0 0 0 0 0 0 0 0 0 0 0 0 0 0 0 0 0 0 0 0 0 0 0
0 0 0 0 0 0 0 0 0 0 0 0 0 0 0 0 0 0 0 0 0 0 0 0 0 0 0 0 0 0 0 0 0 0 0 0 0 0 0 0 -0 0 0 0 0 0 0 0 0 0 0 0 0 0
0 0 0 0 0 0 0 0 0 0 0 0 0 0 0 0 0 0 0 0 0 0 0 0 0 0 0 0 0 0 0 0 0 0 0 0 0 0 0 0 0 0 0 0 0 0 0 0 0 0 0 0 0 0
0 0 0 0 0 0 0 0 0 0 0 0 0 0 0 0 0 0 0 0 0 0 0 0 0 0 0 0 0 0 0 0 0 0 0 0 0 0 0 0 0 0 0 0 0 0 0 0 0 0 0 0 0 0
-0 -0 0 0 0 0 0 0 0 0 0 0 0 0 0 0 0 0 0 0 0 0 0 0 0 0 0 0 0 0 0 0 0 0 0 0 0 0 0 0 0 0 0 0 0 0 0 0 0 0 0 0 0 0
-0 -0 -0 0 0 0 0 0 0 0 0 0 0 0 0 0 0 0 0 0 0 0 0 0 0 0 0 0 0 0 0 0 0 0 0 -0 0 0 0 0 0 0 0 0 0 -0 0 -0 0 0 0 0 0 0
0 -0 -0 -0 0 0 0 0 0 0 0 0 0 0 0 0 0 0 0 0 0 0 0 0 0 0 0 0 0 0 0 0 0 0 -0 -0 0 0 0 0 0 -0 -0 0 -0 -0 0 0 0 0 0 0 0 0
-0 0 -0 0 0 0 0 0 0 0 0 0 0 0 0 0 0 0 0 0 0 0 0 0 0 0 0 0 0 0 0 0 0 -0 -0 0 0 0 0 0 0 0 0 -0 0 0 0 0 0 0 0 0 0 0
-0 -0 -0 0 0 0 0 0 0 0 0 0 0 0 -0 0 0 0 0 0 0 0 0 0 0 0 0 0 0 0 0 0 -0 -0 0 0 0 -0 -0 0 -0 0 0 0 0 0 0 0 0 0 0 0 0 0
0 0 0 0 -0 0 0 0 0 0 0 0 0 0 0 0 -0 0 0 0 0 0 0 0 0 0 0 0 0 0 0 0 0 0 0 0 0 0 0 0 0 0 0 0 0 0 0 0 0 0 0 0 0 0
0 0 0 -0 -0 0 0 0 0 0 0 0 0 0 0 0 0 -0 0 0 0 0 0 0 0 0 0 0 0 0 0 0 0 0 0 -0 0 0 0 0 0 0 0 0 0 0 0 0 0 0 0 0 0 0
0 0 0 -0 -0 0 0 0 0 0 0 0 0 -0 -0 -0 -0 0 0 0 0 0 0 0 0 0 0 0 0 0 0 0 0 0 0 0 0 0 0 0 0 0 0 0 0 0 0 0 0 0 0 0 0 0
0 0 0 0 0 0 0 0 0 0 0 0 0 0 0 -0 0 0 0 0 0 0 0 0 0 0 0 0 0 0 0 0 0 0 0 0 0 0 0 0 0 0 0 0 0 0 0 0 0 0 0 0 0 0
0 0 -0 -0 0 0 0 0 0 0 0 0 0 0 0 0 0 0 -0 -0 0 0 0 0 0 0 0 0 0 0 0 0 0 0 0 0 0 0 0 0 0 0 0 0 0 0 0 0 0 0 0 0 0 0
0 0 -0 0 0 0 0 0 0 0 0 0 -0 0 -0 -0 0 0 0 0 0 0 -0 -0 0 0 0 0 0 -0 -0 0 0 0 0 0 0 0 0 0 0 0 0 0 0 0 0 0 0 0 0 0 0 0
0 0 0 0 0 0 0 0 0 0 0 0 0 0 0 0 0 0 0 0 0 0 -0 0 0 0 0 0 0 0 0 0 0 0 0 0 0 0 0 0 0 0 0 0 0 0 0 0 0 0 -0 -0 -0 0
0 0 0 0 0 0 0 0 0 0 0 0 0 0 0 0 0 0 0 0 0 0 0 0 0 -0 -0 -0 0 0 0 0 0 0 0 0 0 0 0 0 0 0 0 0 0 0 0 0 0 -0 -0 -0 -0 -0
0 0 0 0 0 0 0 0 0 0 0 0 0 0 0 0 0 0 0 0 0 0 0 0 0 0 0 -0 -0 0 0 0 0 0 0 0 0 0 0 0 0 0 0 0 0 0 0 0 -0 0 0 0 0 0
0 0 0 0 0 0 0 0 0 0 0 0 0 0 0 0 0 0 0 0 0 -0 0 0 0 0 0 0 0 0 0 0 0 0 0 0 0 0 0 0 0 0 0 0 0 0 0 0 0 0 -0 -0 0 -0
0 0 0 -0 -0 0 0 0 0 0 0 0 0 0 0 0 0 0 0 0 0 0 0 0 0 0 0 0 0 0 0 0 0 0 0 0 0 0 0 0 0 0 0 0 0 0 0 0 0 0 0 0 -0 -0
0 0 0 0 0 0 0 0 0 0 0 0 0 0 0 0 0 0 0 0 0 0 0 0 0 0 0 0 0 0 0 0 0 0 0 0 0 0 0 0 0 0 0 0 0 0 0 0 0 0 0 0 -0 0
0 0 0 0 0 0 0 0 0 0 0 0 0 0 0 0 0 0 0 0 0 0 0 0 0 0 0 0 0 0 0 0 0 0 0 0 0 0 0 0 0 0 0 0 0 0 0 0 0 0 0 0 0 0
0 0 0 0 0 0 0 0 0 0 0 0 0 0 0 0 0 0 -0 -0 0 0 0 0 0 0 0 0 0 0 0 0 0 0 0 0 0 0 0 0 0 0 0 0 0 0 0 0 0 0 0 0 0 0
0 -0 -0 0 0 0 0 0 0 0 0 0 0 0 0 -0 0 0 0 -0 -0 0 0 0 0 0 0 0 0 0 0 0 0 0 0 0 0 0 0 0 0 0 0 0 0 0 0 0 0 0 0 0 0 0
0 0 0 0 0 0 0 0 0 0 0 0 0 0 0 0 0 0 0 0 0 0 0 0 0 0 0 0 0 0 0 0 0 0 0 0 0 0 0 0 0 0 0 0 0 0 0 0 0 0 0 0 0 0
0 0 0 0 0 0 0 0 0 0 0 0 0 0 0 0 0 0 0 0 0 0 0 0 0 0 0 0 0 0 0 0 0 0 0 0 0 0 0 0 0 0 0 0 0 0 0 0 0 0 0 0 0 0
0 0 0 0 0 0 0 0 0 0 0 0 0 0 0 0 0 0 0 -0 -0 0 0 0 0 0 0 0 0 0 0 0 0 0 0 0 0 0 0 0 0 0 0 0 0 0 0 0 0 0 0 0 0 0
Wind_Speed_500mb
51 50 48 48 50 51 51 56 58 55 54 52 46 43 39 35 87 122 72 111 100 34 19 45 47 39 28 30 17 29 19 7 11 16 11 10 11 13 8 10 13 17 17 10 11 10 12 26 14 10 5 5 6 16
47 47 45 47 47 46 47 52 53 48 51 52 44 43 39 48 57 29 45 81 90 57 40 43 47 43 57 65 36 46 9 31 24 11 9 7 7 10 12 9 11 12 10 8 18 9 2 35 3 21 14 6 7 12
45 47 43 43 42 44 44 46 53 49 47 51 52 46 37 32 43 54 21 67 80 31 36 30 36 50 41 42 53 23 13 21 22 16 15 7 8 11 13 13 13 13 18 7 6 13 29 23 30 31 28 28 19 19
44 44 43 41 41 39 39 39 43 44 46 48 47 50 43 33 34 56 49 46 77 33 11 31 44 48 42 41 41 40 30 35 35 23 9 7 7 18 9 0 12 6 27 19 21 24 15 32 37 36 35 41 41 36
42 42 42 41 36 38 42 39 41 44 45 47 51 48 46 41 31 36 34 40 84 62 14 19 50 39 65 41 47 35 27 31 22 15 7 9 10 8 3 3 10 24 18 16 18 14 16 23 16 21 22 24 33 38
41 41 42 41 39 43 42 41 42 42 43 42 44 45 43 37 28 24 15 26 48 60 17 8 17 55 43 48 51 42 38 32 32 14 8 11 11 14 10 14 34 45 44 52 54 42 39 49 42 37 38 34 32 34
43 41 43 41 41 44 40 39 38 35 33 35 35 35 36 35 30 32 12 9 52 53 17 7 7 20 58 51 41 40 37 21 15 18 12 12 14 19 9 23 33 40 53 56 60 50 48 57 37 18 29 25 26 28
45 44 42 40 38 41 42 40 36 37 39 34 30 26 28 27 33 36 51 25 55 51 18 9 7 13 44 27 24 35 19 27 20 20 8 11 10 12 13 25 82 68 46 42 54 50 70 52 39 48 45 41 39 39
46 46 45 41 39 41 39 39 38 35 30 39 24 21 24 30 19 42 43 43 71 19 17 11 18 12 37 27 18 18 22 12 10 9 11 17 15 20 21 51 66 64 56 78 61 60 78 64 86 63 48 48 52 44
50 49 42 40 35 40 40 40 39 36 30 33 25 16 12 15 27 25 39 18 19 11 12 6 20 10 43 29 9 16 9 7 9 15 16 13 29 51 51 65 54 47 64 66 60 66 65 66 69 70 62 60 57 60
66 57 48 46 43 39 39 41 40 40 31 29 17 16 9 21 30 22 13 12 11 11 20 15 21 21 30 19 11 9 10 10 8 11 15 12 14 29 80 87 90 98 87 83 83 82 67 61 63 56 55 56 61 56
59 66 54 44 45 45 42 45 46 48 28 27 17 14 9 5 5 10 10 7 12 15 19 20 26 36 26 21 9 11 8 7 12 17 8 10 8 49 52 63 71 83 76 76 74 78 73 71 64 56 49 45 51 51
39 52 54 48 42 47 47 47 50 51 35 30 10 7 7 9 8 10 15 7 8 17 32 43 28 23 18 9 11 8 16 12 17 10 11 7 13 31 45 61 66 45 47 46 52 57 58 58 52 54 49 46 42 43
29 41 44 54 51 50 48 49 52 52 28 11 13 11 7 8 9 10 7 5 8 20 57 76 36 11 13 7 8 10 5 9 10 13 12 12 25 43 53 53 43 41 31 32 37 36 39 42 42 39 40 38 39 43
22 28 32 46 58 60 49 48 53 56 16 11 12 12 15 7 12 11 5 6 13 60 76 41 21 13 6 8 3 10 8 13 16 8 10 14 32 35 34 43 41 35 39 38 30 28 27 31 33 32 32 35 38 38
13 23 42 43 60 58 55 50 57 42 15 10 9 7 14 7 6 5 6 8 31 62 64 28 9 10 8 11 11 17 13 17 8 12 21 19 32 32 27 22 27 29 27 29 29 27 27 26 27 29 33 36 38 36
8 16 39 47 60 62 59 54 27 13 12 10 8 16 10 7 5 11 24 25 57 61 24 8 12 13 12 9 11 12 13 8 16 12 20 21 15 11 14 19 23 29 28 27 27 29 27 24 25 32 41 45 42 35
3 2 43 58 66 71 56 20 12 12 11 14 7 15 14 9 8 19 22 35 61 67 32 8 16 10 13 15 11 12 20 39 30 16 16 22 19 13 10 20 27 29 31 32 35 34 29 24 26 34 46 48 41 34
12 10 40 67 75 40 14 16 12 11 14 10 15 16 13 14 19 25 26 53 48 37 17 7 3 8 8 8 8 17 36 43 39 38 26 25 23 18 18 28 31 36 39 41 38 35 31 29 28 38 46 47 44 40
20 28 43 55 69 10 8 6 21 9 7 10 13 11 7 9 23 26 24 48 27 9 6 7 10 5 7 12 17 24 17 28 39 32 35 43 40 30 35 41 43 44 45 42 40 37 37 37 37 40 47 50 46 44
33 42 49 58 20 12 9 15 11 11 12 9 12 14 6 15 13 24 20 38 15 7 8 19 17 13 7 10 12 21 20 18 27 34 39 43 42 42 43 45 43 45 45 44 42 41 38 39 42 45 45 44 45 44
19 52 37 45 4 8 6 10 8 13 10 6 19 23 11 8 11 16 26 6 10 39 40 23 26 31 28 18 19 20 12 19 15 22 23 21 49 53 52 52 54 51 44 40 38 34 38 38 39 40 44 48 47 44
32 36 22 13 7 6 7 18 8 9 7 6 17 7 6 8 24 38 7 15 20 41 49 55 36 27 31 30 23 21 19 18 20 20 23 26 39 48 53 56 55 51 44 39 34 35 41 41 42 44 46 48 52 52
28 8 10 13 9 8 13 8 10 7 7 7 8 7 7 5 27 4 8 12 44 30 45 58 56 48 40 32 17 18 15 9 11 17 22 25 40 50 49 52 51 43 39 40 42 44 47 49 49 49 51 55 54 57
7 6 11 7 7 9 9 11 10 6 5 8 9 4 7 12 7 9 8 14 39 46 54 43 51 53 51 43 37 28 23 17 18 16 20 29 37 46 53 53 47 41 42 49 54 55 56 54 53 53 56 59 61 60
6 10 13 13 9 10 13 11 16 10 6 3 4 7 7 5 5 10 8 26 43 42 54 67 69 62 62 61 53 41 24 19 19 18 19 30 40 54 64 62 56 51 51 52 58 62 59 55 55 55 56 57 60 61
8 9 11 11 8 11 8 5 8 5 8 10 6 8 7 9 15 10 20 38 43 55 61 65 65 75 71 67 69 60 34 17 21 20 17 24 37 49 52 55 54 49 53 55 57 60 59 59 59 58 58 58 59 59
7 13 15 17 8 10 10 10 12 13 9 11 17 12 11 15 10 10 12 10 17 31 37 54 62 68 69 69 67 74 55 38 22 19 21 24 32 40 45 43 34 35 42 49 55 59 57 57 58 60 61 60 62 61
5 14 18 9 6 7 8 10 12 13 22 22 11 8 8 13 9 8 13 9 10 16 28 36 46 57 54 60 58 71 68 61 46 32 30 34 42 48 51 49 42 39 41 46 53 54 56 54 57 58 57 56 56 58
11 28 6 11 9 9 5 11 7 19 34 24 15 6 8 12 15 22 24 20 16 18 26 35 47 57 64 68 69 74 72 63 51 46 37 37 39 48 57 56 51 45 48 53 58 61 59 58 59 61 62 62 61 62
23 15 5 4 5 9 10 14 7 13 13 10 18 12 7 10 12 17 19 17 18 20 25 35 46 58 62 66 73 77 73 70 63 58 58 49 38 43 58 57 53 48 50 59 64 69 72 71 67 66 66 65 64 64
13 9 7 7 5 6 8 9 7 6 8 10 4 7 5 6 7 10 15 25 28 24 18 22 37 51 50 53 60 67 73 75 75 67 56 51 42 30 54 59 56 51 54 61 65 68 70 73 73 71 68 65 65 67
6 6 6 7 3 3 7 5 2 2 3 4 8 12 13 8 9 8 10 20 26 23 21 16 18 29 39 48 54 56 66 64 63 62 53 50 43 34 55 61 61 55 55 60 63 66 70 73 72 70 68 66 66 66
Wind_Direction_500mb
271 272 269 266 265 260 256 250 244 242 240 239 242 251 246 238 194 209 207 206 205 205 241 203 196 168 161 176 158 145 122 169 166 184 189 179 213 201 205 146 178 178 166 191 196 223 258 164 132 227 89 124 161 192
273 268 268 265 262 260 258 252 244 241 240 236 237 244 243 244 217 233 208 214 201 188 205 226 206 203 210 198 180 169 184 155 167 166 194 148 180 176 198 211 195 208 215 185 206 220 23 184 182 204 177 171 187 211
270 266 264 263 261 258 255 256 244 239 241 237 232 233 242 246 226 228 257 191 191 177 191 210 207 206 198 197 204 160 191 163 171 149 150 155 201 173 179 218 184 220 195 242 220 221 225 228 232 240 238 235 243 238
270 265 262 261 259 254 251 252 242 238 239 238 229 228 234 239 244 225 230 216 209 180 158 215 208 214 196 195 192 198 201 175 166 156 150 158 189 203 203 188 212 167 159 203 246 254 265 254 238 248 251 252 259 258
271 267 261 258 256 255 245 245 243 237 238 235 233 232 233 235 242 223 222 245 201 195 151 164 191 183 203 201 195 181 186 177 158 160 165 196 134 167 178 188 224 187 190 198 234 225 232 274 233 247 232 247 255 258
272 268 260 257 247 253 248 241 239 240 238 234 231 228 230 229 236 219 232 231 218 200 148 150 165 194 182 189 201 189 197 206 202 173 186 198 188 208 211 234 238 225 223 225 242 253 257 265 265 256 254 255 258 259
271 263 260 253 244 246 244 236 235 228 227 227 223 220 221 221 220 203 180 162 206 201 136 99 124 183 198 191 179 181 189 196 203 208 227 207 196 196 236 234 248 232 232 230 236 247 255 250 251 284 246 248 247 248
262 264 255 250 246 239 235 229 227 226 219 210 211 214 211 214 221 242 227 272 195 182 146 137 132 150 170 170 185 212 202 208 231 231 179 203 178 212 242 212 239 243 231 233 239 231 239 254 255 256 252 250 243 243
259 262 252 248 241 230 229 223 220 217 229 222 190 191 200 220 221 237 230 233 183 162 142 165 153 155 167 156 145 161 172 180 198 225 216 187 207 220 204 222 235 239 220 237 242 240 247 251 257 256 248 245 244 243
257 249 248 235 233 226 220 216 210 206 220 192 177 171 195 210 216 200 155 194 153 159 150 154 146 135 166 158 131 125 162 204 193 208 164 228 242 238 234 245 244 241 237 241 241 241 240 241 245 249 243 242 242 252
246 235 235 229 228 221 214 208 202 193 197 180 181 193 200 165 163 187 178 201 144 166 169 161 165 137 164 163 136 178 162 172 221 183 203 227 239 218 229 237 244 249 247 245 243 248 248 248 250 249 248 243 248 246
230 221 221 226 218 213 206 200 192 187 186 175 165 145 143 285 231 202 181 158 213 166 162 150 151 137 140 151 129 172 156 176 236 142 217 244 191 232 228 232 243 251 247 246 244 244 246 244 244 244 243 244 247 252
203 212 207 210 211 205 201 193 190 189 171 160 166 128 143 201 245 223 176 185 186 162 165 149 146 128 144 128 108 145 180 205 133 207 234 236 230 230 233 241 248 244 241 250 250 246 244 243 241 241 240 238 240 237
206 210 217 216 208 197 195 191 187 185 167 158 147 175 203 221 234 230 226 262 121 162 148 149 135 139 140 160 133 153 135 154 226 236 236 234 206 242 239 238 234 240 242 248 247 241 236 233 233 233 231 231 225 220
229 220 210 205 200 196 192 186 183 179 171 169 154 190 209 217 253 255 251 188 162 157 149 141 101 113 105 103 163 117 151 234 223 235 225 207 225 228 234 239 235 240 234 237 238 235 225 218 218 217 214 210 205 206
242 214 206 200 192 190 180 179 174 175 162 173 208 210 191 182 214 232 234 202 171 165 150 121 99 133 169 151 164 199 190 223 215 221 222 216 236 239 235 232 224 228 227 227 229 219 206 209 214 212 202 196 191 189
316 188 187 176 173 169 169 161 153 142 164 188 244 239 250 117 183 217 212 200 174 170 167 128 147 169 122 178 198 202 216 197 225 230 222 218 193 158 192 200 199 203 213 206 198 191 187 189 191 187 184 178 178 181
340 164 165 165 159 162 164 177 129 142 185 201 208 233 211 229 207 225 206 191 179 180 169 177 127 170 184 186 212 195 203 227 240 224 226 181 170 161 184 184 190 196 190 186 177 176 177 177 175 174 176 177 179 182
177 170 167 168 169 149 134 165 167 179 204 171 217 202 177 202 230 234 219 190 192 184 125 35 59 191 208 213 208 193 201 210 215 213 196 197 201 206 205 194 194 187 179 177 179 182 182 182 180 176 180 185 187 182
138 167 169 170 174 117 100 117 176 150 188 200 182 194 184 199 219 238 235 187 189 152 176 208 214 224 202 229 229 227 234 222 220 216 214 212 210 219 215 199 189 183 178 180 189 192 192 189 186 187 192 194 192 189
161 160 173 176 158 137 149 160 163 180 159 189 183 177 161 170 169 195 186 176 182 219 235 224 229 239 315 347 320 285 295 264 236 225 219 208 208 209 203 191 187 186 186 191 201 204 205 206 202 194 190 189 189 187
187 172 161 178 101 117 144 176 117 158 168 179 173 180 167 183 172 169 151 166 211 221 223 230 241 260 284 311 306 334 266 254 246 213 210 210 194 194 189 184 187 190 193 202 207 204 196 189 184 183 184 185 184 183
194 180 129 143 123 140 151 164 153 189 190 199 162 178 182 156 179 150 181 208 238 232 225 225 231 242 263 276 288 285 296 254 236 222 212 202 199 194 188 188 190 193 190 193 189 185 178 170 167 168 167 171 173 173
169 112 126 139 139 147 151 176 194 203 191 201 163 166 156 137 154 171 215 227 239 235 228 220 219 221 233 247 254 289 276 248 193 200 201 196 190 189 189 190 192 191 196 189 176 173 172 166 160 161 165 169 169 170
160 118 127 139 154 138 167 168 176 205 184 170 151 168 163 165 182 191 216 241 231 233 238 219 217 216 218 226 236 255 275 254 236 211 206 199 195 184 185 191 189 188 191 187 174 173 168 162 161 167 171 170 167 172
145 172 175 171 154 176 172 159 185 177 141 110 150 139 157 172 162 241 231 234 235 229 208 213 215 212 218 217 216 225 253 246 219 220 224 210 198 194 186 184 184 188 190 190 184 178 174 170 171 174 176 177 175 175
161 180 179 179 162 152 142 107 132 149 159 156 169 172 160 190 222 237 229 227 227 235 238 238 225 217 213 210 213 217 225 249 236 244 237 217 205 202 201 194 195 195 189 184 189 190 184 180 179 179 180 178 177 179
161 165 174 168 178 199 152 157 165 185 176 169 145 185 203 203 226 217 219 260 287 244 239 236 234 224 216 219 215 208 211 224 222 205 194 190 196 196 198 201 205 202 196 190 188 191 190 187 184 184 183 181 179 181
177 159 138 165 175 204 216 184 187 196 176 169 178 206 234 226 224 264 305 299 264 218 219 210 211 207 200 208 214 205 201 204 200 192 198 194 191 193 192 196 195 189 189 189 189 189 190 191 191 189 187 186 184 182
185 178 163 159 171 211 231 209 215 190 187 194 205 218 249 252 256 259 261 259 265 267 229 217 208 199 198 199 198 198 199 200 201 213 218 227 219 202 195 193 192 192 188 184 185 182 183 189 193 193 192 190 189 187
159 162 111 136 207 208 211 213 239 194 202 231 242 253 263 309 300 280 262 244 238 226 212 204 201 204 202 199 198 194 197 199 207 211 225 236 252 218 203 196 193 196 193 186 186 188 186 188 193 193 193 194 193 192
154 169 147 166 198 201 172 184 184 186 210 207 205 234 262 253 266 266 252 222 215 214 213 209 206 204 207 212 206 204 205 202 201 208 213 220 226 220 202 197 195 197 193 190 190 191 192 193 193 194 194 195 195 194
119 127 105 113 134 202 173 155 147 190 202 221 209 184 204 238 243 241 241 228 222 226 224 216 209 215 211 208 203 202 206 206 209 206 212 217 218 214 198 195 196 195 191 192 192 193 195 196 196 195 195 195 194 194
Wind_Speed_850mb
51 50 48 48 50 51 51 56 58 55 54 52 46 43 39 35 87 122 72 111 100 34 19 45 47 39 28 30 17 29 19 7 11 16 11 10 11 13 8 10 13 17 17 10 11 10 12 26 14 10 5 5 6 16
47 47 45 47 47 46 47 52 53 48 51 52 44 43 39 48 57 29 45 81 90 57 40 43 47 43 57 65 36 46 9 31 24 11 9 7 7 10 12 9 11 12 10 8 18 9 2 35 3 21 14 6 7 12
45 47 43 43 42 44 44 46 53 49 47 51 52 46 37 32 43 54 21 67 80 31 36 30 36 50 41 42 53 23 13 21 22 16 15 7 8 11 13 13 13 13 18 7 6 13 29 23 30 31 28 28 19 19
44 44 43 41 41 39 39 39 43 44 46 48 47 50 43 33 34 56 49 46 77 33 11 31 44 48 42 41 41 40 30 35 35 23 9 7 7 18 9 0 12 6 27 19 21 24 15 32 37 36 35 41 41 36
42 42 42 41 36 38 42 39 41 44 45 47 51 48 46 41 31 36 34 40 84 62 14 19 50 39 65 41 47 35 27 31 22 15 7 9 10 8 3 3 10 24 18 16 18 14 16 23 16 21 22 24 33 38
41 41 42 41 39 43 42 41 42 42 43 42 44 45 43 37 28 24 15 26 48 60 17 8 17 55 43 48 51 42 38 32 32 14 8 11 11 14 10 14 34 45 44 52 54 42 39 49 42 37 38 34 32 34
43 41 43 41 41 44 40 39 38 35 33 35 35 35 36 35 30 32 12 9 52 53 17 7 7 20 58 51 41 40 37 21 15 18 12 12 14 19 9 23 33 40 53 56 60 50 48 57 37 18 29 25 26 28
45 44 42 40 38 41 42 40 36 37 39 34 30 26 28 27 33 36 51 25 55 51 18 9 7 13 44 27 24 35 19 27 20 20 8 11 10 12 13 25 82 68 46 42 54 50 70 52 39 48 45 41 39 39
46 46 45 41 39 41 39 39 38 35 30 39 24 21 24 30 19 42 43 43 71 19 17 11 18 12 37 27 18 18 22 12 10 9 11 17 15 20 21 51 66 64 56 78 61 60 78 64 86 63 48 48 52 44
50 49 42 40 35 40 40 40 39 36 30 33 25 16 12 15 27 25 39 18 19 11 12 6 20 10 43 29 9 16 9 7 9 15 16 13 29 51 51 65 54 47 64 66 60 66 65 66 69 70 62 60 57 60
66 57 48 46 43 39 39 41 40 40 31 29 17 16 9 21 30 22 13 12 11 11 20 15 21 21 30 19 11 9 10 10 8 11 15 12 14 29 80 87 90 98 87 83 83 82 67 61 63 56 55 56 61 56
59 66 54 44 45 45 42 45 46 48 28 27 17 14 9 5 5 10 10 7 12 15 19 20 26 36 26 21 9 11 8 7 12 17 8 10 8 49 52 63 71 83 76 76 74 78 73 71 64 56 49 45 51 51
39 52 54 48 42 47 47 47 50 51 35 30 10 7 7 9 8 10 15 7 8 17 32 43 28 23 18 9 11 8 16 12 17 10 11 7 13 31 45 61 66 45 47 46 52 57 58 58 52 54 49 46 42 43
29 41 44 54 51 50 48 49 52 52 28 11 13 11 7 8 9 10 7 5 8 20 57 76 36 11 13 7 8 10 5 9 10 13 12 12 25 43 53 53 43 41 31 32 37 36 39 42 42 39 40 38 39 43
22 28 32 46 58 60 49 48 53 56 16 11 12 12 15 7 12 11 5 6 13 60 76 41 21 13 6 8 3 10 8 13 16 8 10 14 32 35 34 43 41 35 39 38 30 28 27 31 33 32 32 35 38 38
13 23 42 43 60 58 55 50 57 42 15 10 9 7 14 7 6 5 6 8 31 62 64 28 9 10 8 11 11 17 13 17 8 12 21 19 32 32 27 22 27 29 27 29 29 27 27 26 27 29 33 36 38 36
8 16 39 47 60 62 59 54 27 13 12 10 8 16 10 7 5 11 24 25 57 61 24 8 12 13 12 9 11 12 13 8 16 12 20 21 15 11 14 19 23 29 28 27 27 29 27 24 25 32 41 45 42 35
3 2 43 58 66 71 56 20 12 12 11 14 7 15 14 9 8 19 22 35 61 67 32 8 16 10 13 15 11 12 20 39 30 16 16 22 19 13 10 20 27 29 31 32 35 34 29 24 26 34 46 48 41 34
12 10 40 67 75 40 14 16 12 11 14 10 15 16 13 14 19 25 26 53 48 37 17 7 3 8 8 8 8 17 36 43 39 38 26 25 23 18 18 28 31 36 39 41 38 35 31 29 28 38 46 47 44 40
20 28 43 55 69 10 8 6 21 9 7 10 13 11 7 9 23 26 24 48 27 9 6 7 10 5 7 12 17 24 17 28 39 32 35 43 40 30 35 41 43 44 45 42 40 37 37 37 37 40 47 50 46 44
33 42 49 58 20 12 9 15 11 11 12 9 12 14 6 15 13 24 20 38 15 7 8 19 17 13 7 10 12 21 20 18 27 34 39 43 42 42 43 45 43 45 45 44 42 41 38 39 42 45 45 44 45 44
19 52 37 45 4 8 6 10 8 13 10 6 19 23 11 8 11 16 26 6 10 39 40 23 26 31 28 18 19 20 12 19 15 22 23 21 49 53 52 52 54 51 44 40 38 34 38 38 39 40 44 48 47 44
32 36 22 13 7 6 7 18 8 9 7 6 17 7 6 8 24 38 7 15 20 41 49 55 36 27 31 30 23 21 19 18 20 20 23 26 39 48 53 56 55 51 44 39 34 35 41 41 42 44 46 48 52 52
28 8 10 13 9 8 13 8 10 7 7 7 8 7 7 5 27 4 8 12 44 30 45 58 56 48 40 32 17 18 15 9 11 17 22 25 40 50 49 52 51 43 39 40 42 44 47 49 49 49 51 55 54 57
7 6 11 7 7 9 9 11 10 6 5 8 9 4 7 12 7 9 8 14 39 46 54 43 51 53 51 43 37 28 23 17 18 16 20 29 37 46 53 53 47 41 42 49 54 55 56 54 53 53 56 59 61 60
6 10 13 13 9 10 13 11 16 10 6 3 4 7 7 5 5 10 8 26 43 42 54 67 69 62 62 61 53 41 24 19 19 18 19 30 40 54 64 62 56 51 51 52 58 62 59 55 55 55 56 57 60 61
8 9 11 11 8 11 8 5 8 5 8 10 6 8 7 9 15 10 20 38 43 55 61 65 65 75 71 67 69 60 34 17 21 20 17 24 37 49 52 55 54 49 53 55 57 60 59 59 59 58 58 58 59 59
7 13 15 17 8 10 10 10 12 13 9 11 17 12 11 15 10 10 12 10 17 31 37 54 62 68 69 69 67 74 55 38 22 19 21 24 32 40 45 43 34 35 42 49 55 59 57 57 58 60 61 60 62 61
5 14 18 9 6 7 8 10 12 13 22 22 11 8 8 13 9 8 13 9 10 16 28 36 46 57 54 60 58 71 68 61 46 32 30 34 42 48 51 49 42 39 41 46 53 54 56 54 57 58 57 56 56 58
11 28 6 11 9 9 5 11 7 19 34 24 15 6 8 12 15 22 24 20 16 18 26 35 47 57 64 68 69 74 72 63 51 46 37 37 39 48 57 56 51 45 48 53 58 61 59 58 59 61 62 62 61 62
23 15 5 4 5 9 10 14 7 13 13 10 18 12 7 10 12 17 19 17 18 20 25 35 46 58 62 66 73 77 73 70 63 58 58 49 38 43 58 57 53 48 50 59 64 69 72 71 67 66 66 65 64 64
13 9 7 7 5 6 8 9 7 6 8 10 4 7 5 6 7 10 15 25 28 24 18 22 37 51 50 53 60 67 73 75 75 67 56 51 42 30 54 59 56 51 54 61 65 68 70 73 73 71 68 65 65 67
6 6 6 7 3 3 7 5 2 2 3 4 8 12 13 8 9 8 10 20 26 23 21 16 18 29 39 48 54 56 66 64 63 62 53 50 43 34 55 61 61 55 55 60 63 66 70 73 72 70 68 66 66 66
Wind_Direction_850mb
271 272 269 266 265 260 256 250 244 242 240 239 242 251 246 238 194 209 207 206 205 205 241 203 196 168 161 176 158 145 122 169 166 184 189 179 213 201 205 146 178 178 166 191 196 223 258 164 132 227 89 124 161 192
273 268 268 265 262 260 258 252 244 241 240 236 237 244 243 244 217 233 208 214 201 188 205 226 206 203 210 198 180 169 184 155 167 166 194 148 180 176 198 211 195 208 215 185 206 220 23 184 182 204 177 171 187 211
270 266 264 263 261 258 255 256 244 239 241 237 232 233 242 246 226 228 257 191 191 177 191 210 207 206 198 197 204 160 191 163 171 149 150 155 201 173 179 218 184 220 195 242 220 221 225 228 232 240 238 235 243 238
270 265 262 261 259 254 251 252 242 238 239 238 229 228 234 239 244 225 230 216 209 180 158 215 208 214 196 195 192 198 201 175 166 156 150 158 189 203 203 188 212 167 159 203 246 254 265 254 238 248 251 252 259 258
271 267 261 258 256 255 245 245 243 237 238 235 233 232 233 235 242 223 222 245 201 195 151 164 191 183 203 201 195 181 186 177 158 160 165 196 134 167 178 188 224 187 190 198 234 225 232 274 233 247 232 247 255 258
272 268 260 257 247 253 248 241 239 240 238 234 231 228 230 229 236 219 232 231 218 200 148 150 165 194 182 189 201 189 197 206 202 173 186 198 188 208 211 234 238 225 223 225 242 253 257 265 265 256 254 255 258 259
271 263 260 253 244 246 244 236 235 228 227 227 223 220 221 221 220 203 180 162 206 201 136 99 124 183 198 191 179 181 189 196 203 208 227 207 196 196 236 234 248 232 232 230 236 247 255 250 251 284 246 248 247 248
262 264 255 250 246 239 235 229 227 226 219 210 211 214 211 214 221 242 227 272 195 182 146 137 132 150 170 170 185 212 202 208 231 231 179 203 178 212 242 212 239 243 231 233 239 231 239 254 255 256 252 250 243 243
259 262 252 248 241 230 229 223 220 217 229 222 190 191 200 220 221 237 230 233 183 162 142 165 153 155 167 156 145 161 172 180 198 225 216 187 207 220 204 222 235 239 220 237 242 240 247 251 257 256 248 245 244 243
257 249 248 235 233 226 220 216 210 206 220 192 177 171 195 210 216 200 155 194 153 159 150 154 146 135 166 158 131 125 162 204 193 208 164 228 242 238 234 245 244 241 237 241 241 241 240 241 245 249 243 242 242 252
246 235 235 229 228 221 214 208 202 193 197 180 181 193 200 165 163 187 178 201 144 166 169 161 165 137 164 163 136 178 162 172 221 183 203 227 239 218 229 237 244 249 247 245 243 248 248 248 250 249 248 243 248 246
230 221 221 226 218 213 206 200 192 187 186 175 165 145 143 285 231 202 181 158 213 166 162 150 151 137 140 151 129 172 156 176 236 142 217 244 191 232 228 232 243 251 247 246 244 244 246 244 244 244 243 244 247 252
203 212 207 210 211 205 201 193 190 189 171 160 166 128 143 201 245 223 176 185 186 162 165 149 146 128 144 128 108 145 180 205 133 207 234 236 230 230 233 241 248 244 241 250 250 246 244 243 241 241 240 238 240 237
206 210 217 216 208 197 195 191 187 185 167 158 147 175 203 221 234 230 226 262 121 162 148 149 135 139 140 160 133 153 135 154 226 236 236 234 206 242 239 238 234 240 242 248 247 241 236 233 233 233 231 231 225 220
229 220 210 205 200 196 192 186 183 179 171 169 154 190 209 217 253 255 251 188 162 157 149 141 101 113 105 103 163 117 151 234 223 235 225 207 225 228 234 239 235 240 234 237 238 235 225 218 218 217 214 210 205 206
242 214 206 200 192 190 180 179 174 175 162 173 208 210 191 182 214 232 234 202 171 165 150 121 99 133 169 151 164 199 190 223 215 221 222 216 236 239 235 232 224 228 227 227 229 219 206 209 214 212 202 196 191 189
316 188 187 176 173 169 169 161 153 142 164 188 244 239 250 117 183 217 212 200 174 170 167 128 147 169 122 178 198 202 216 197 225 230 222 218 193 158 192 200 199 203 213 206 198 191 187 189 191 187 184 178 178 181
340 164 165 165 159 162 164 177 129 142 185 201 208 233 211 229 207 225 206 191 179 180 169 177 127 170 184 186 212 195 203 227 240 224 226 181 170 161 184 184 190 196 190 186 177 176 177 177 175 174 176 177 179 182
177 170 167 168 169 149 134 165 167 179 204 171 217 202 177 202 230 234 219 190 192 184 125 35 59 191 208 213 208 193 201 210 215 213 196 197 201 206 205 194 194 187 179 177 179 182 182 182 180 176 180 185 187 182
138 167 169 170 174 117 100 117 176 150 188 200 182 194 184 199 219 238 235 187 189 152 176 208 214 224 202 229 229 227 234 222 220 216 214 212 210 219 215 199 189 183 178 180 189 192 192 189 186 187 192 194 192 189
161 160 173 176 158 137 149 160 163 180 159 189 183 177 161 170 169 195 186 176 182 219 235 224 229 239 315 347 320 285 295 264 236 225 219 208 208 209 203 191 187 186 186 191 201 204 205 206 202 194 190 189 189 187
187 172 161 178 101 117 144 176 117 158 168 179 173 180 167 183 172 169 151 166 211 221 223 230 241 260 284 311 306 334 266 254 246 213 210 210 194 194 189 184 187 190 193 202 207 204 196 189 184 183 184 185 184 183
194 180 129 143 123 140 151 164 153 189 190 199 162 178 182 156 179 150 181 208 238 232 225 225 231 242 263 276 288 285 296 254 236 222 212 202 199 194 188 188 190 193 190 193 189 185 178 170 167 168 167 171 173 173
169 112 126 139 139 147 151 176 194 203 191 201 163 166 156 137 154 171 215 227 239 235 228 220 219 221 233 247 254 289 276 248 193 200 201 196 190 189 189 190 192 191 196 189 176 173 172 166 160 161 165 169 169 170
160 118 127 139 154 138 167 168 176 205 184 170 151 168 163 165 182 191 216 241 231 233 238 219 217 216 218 226 236 255 275 254 236 211 206 199 195 184 185 191 189 188 191 187 174 173 168 162 161 167 171 170 167 172
145 172 175 171 154 176 172 159 185 177 141 110 150 139 157 172 162 241 231 234 235 229 208 213 215 212 218 217 216 225 253 246 219 220 224 210 198 194 186 184 184 188 190 190 184 178 174 170 171 174 176 177 175 175
161 180 179 179 162 152 142 107 132 149 159 156 169 172 160 190 222 237 229 227 227 235 238 238 225 217 213 210 213 217 225 249 236 244 237 217 205 202 201 194 195 195 189 184 189 190 184 180 179 179 180 178 177 179
161 165 174 168 178 199 152 157 165 185 176 169 145 185 203 203 226 217 219 260 287 244 239 236 234 224 216 219 215 208 211 224 222 205 194 190 196 196 198 201 205 202 196 190 188 191 190 187 184 184 183 181 179 181
177 159 138 165 175 204 216 184 187 196 176 169 178 206 234 226 224 264 305 299 264 218 219 210 211 207 200 208 214 205 201 204 200 192 198 194 191 193 192 196 195 189 189 189 189 189 190 191 191 189 187 186 184 182
185 178 163 159 171 211 231 209 215 190 187 194 205 218 249 252 256 259 261 259 265 267 229 217 208 199 198 199 198 198 199 200 201 213 218 227 219 202 195 193 192 192 188 184 185 182 183 189 193 193 192 190 189 187
159 162 111 136 207 208 211 213 239 194 202 231 242 253 263 309 300 280 262 244 238 226 212 204 201 204 202 199 198 194 197 199 207 211 225 236 252 218 203 196 193 196 193 186 186 188 186 188 193 193 193 194 193 192
154 169 147 166 198 201 172 184 184 186 210 207 205 234 262 253 266 266 252 222 215 214 213 209 206 204 207 212 206 204 205 202 201 208 213 220 226 220 202 197 195 197 193 190 190 191 192 193 193 194 194 195 195 194
119 127 105 113 134 202 173 155 147 190 202 221 209 184 204 238 243 241 241 228 222 226 224 216 209 215 211 208 203 202 206 206 209 206 212 217 218 214 198 195 196 195 191 192 192 193 195 196 196 195 195 195 194 194